Weather in Koptevo

Russia / Oryol Oblast     53°22′04″N   35°39′37″E
temp.,
°C
wind,
m/s
gust,
m/s
humid.,
%
clouds,
%
prec.,
mm/h
press.,
hPa
HPBL,
m
24 september, fri
fri2400:00+6wsw2590100 0.0 1010255
03:00+6ssw3791100 0.0 1009400
06:00+5s51092100 0.0 1007560
09:00+6s71289100 0.0 1005811
12:00+10s91375100 0.1 10031301
15:00+8sse81487100 1.1 10021245
18:00+7sse81293100 1.4 10021090
21:00+8sse61194100 2.1 1002693
25 september, sat
sat2500:00+8sse4995100 0.1 1003498
03:00+7se3597100 0.1 1004130
06:00+7se359698 0.0 1006218
09:00+9sse359273 0.0 1007360
12:00+10ssw348276 0.1 1008661
15:00+12sw3568100 0.3 10081244
18:00+10wsw4785100 0.1 1009340
21:00+9sw5994100 0.6 1009451
26 september, sun
sun2600:00+9sw51196100 2.4 1007540
03:00+10w41098100 3.6 1007456
06:00+10wnw61289100 0.3 1007628
09:00+9nw8128991 0.5 1009827
12:00+9nw7118115 0.1 10121004
15:00+11nw8127455 0.4 10121219
18:00+9nw7137992 0.6 10131033
21:00+8nnw7148641 0.6 1015708
27 september, mon
mon2700:00+8nnw6128881 0.0 1016646
03:00+7nnw6119199 0.0 1018590
06:00+8n51091100 0.0 1019577
09:00+9n589097 0.0 1021569
12:00+11nne467795 0.1 1022878
15:00+12nne4766100 0.3 10231397
18:00+10n4872100 0.1 1024420
21:00+9n3877100 0.1 1025319
28 september, tue
tue2800:00+8nne3685100 0.1 1025305
03:00+8nne3687100 0.1 1026408
06:00+8nne3692100 0.0 1027369
09:00+8ne4789100 0.0 1029452
12:00+9ene4580100 0.1 1030669
15:00+10ene3470100 0.3 1030861
18:00+9ne3681100 0.2 1031333
21:00+8ene3789100 0.2 1031310